Brookings, OR

12:25 AM PST on February 10, 2016 (GMT -0800)
Brookings State

Weather History for KBOK - January, 2014

Change the Weather History Date:

Saturday, January 11, 2014

  Actual Average Record
Temperature  
Mean Temperature 49 °F -  
Max Temperature 52 °F 54 °F 69 °F (1938)
Min Temperature 46 °F 42 °F 26 °F (1963)
Degree Days  
Heating Degree Days 16    
Moisture  
Dew Point 49 °F    
Average Humidity 97    
Maximum Humidity 100    
Minimum Humidity 83    
Precipitation  
Precipitation 0.65 in - - ()
Sea Level Pressure  
Sea Level Pressure 30.09 in    
Wind  
Wind Speed 10 mph (South)    
Max Wind Speed 18 mph    
Max Gust Speed 31 mph    
Visibility 2 miles    
Events Fog , Rain    
Averages and records for this station are not official NWS values.
T = Trace of Precipitation, MM = Missing Value Source: NWS Daily Summary

Daily Weather History Graph

Daily Weather History Graph

Search for Another Location

Airport or City:

Trip Planner

Search our weather history database for the weather conditions in past years. The results will help you decide how hot, cold, wet, or windy it might be!

Date:

Astronomy

Jan. 11, 2014 Rise Set
Actual Time 7:44 AM PST 5:06 PM PST
Civil Twilight 7:13 AM PST 5:37 PM PST
Nautical Twilight 6:38 AM PST 6:12 PM PST
Astronomical Twilight 6:04 AM PST 6:45 PM PST
Moon 1:55 PM PST (1/11) 3:53 AM PST (1/11)
Length of Visible Light 10h 24m
Length of Day
9h 22m
Waxing Gibbous, 84% of the Moon is Illuminated
Jan 11
Waxing Gibbous
Jan 15
Full
Jan 23
Last Quarter
Jan 30
New
Feb 6
First Quarter

Hourly Weather History & Observations

Time (PST) Temp. Dew Point Humidity Pressure Visibility Wind Dir Wind Speed Gust Speed Precip Events Conditions
12:04 AM 50.0 °F 50.0 °F 100% 30.08 in 0.2 mi SSE 13.8 mph 19.6 mph 0.00 in Fog , Rain Light Rain
12:11 AM 50.0 °F 50.0 °F 100% 30.07 in 0.2 mi SSE 15.0 mph 19.6 mph 0.00 in Fog , Rain Light Rain
12:56 AM 50.0 °F 50.0 °F 100% 30.07 in 0.2 mi South 13.8 mph - 0.00 in Fog Fog
1:04 AM 50.0 °F 50.0 °F 100% 30.06 in 0.8 mi SSE 12.7 mph - N/A   Overcast
1:06 AM 50.0 °F 50.0 °F 100% 30.05 in 1.2 mi SSE 13.8 mph - N/A   Overcast
1:08 AM 50.0 °F 50.0 °F 100% 30.05 in 2.0 mi SSE 11.5 mph - N/A   Overcast
1:16 AM 50.0 °F 50.0 °F 100% 30.05 in 4.0 mi South 12.7 mph 21.9 mph N/A   Overcast
1:23 AM 50.0 °F 50.0 °F 100% 30.05 in 4.0 mi South 10.4 mph 19.6 mph N/A   Overcast
1:40 AM 50.0 °F 50.0 °F 100% 30.05 in 1.8 mi South 15.0 mph 20.7 mph 0.00 in Rain Light Rain
1:44 AM 50.0 °F 50.0 °F 100% 30.05 in 1.0 mi South 15.0 mph 20.7 mph 0.01 in Rain Light Rain
1:56 AM 50.0 °F 50.0 °F 100% 30.06 in 0.2 mi South 15.0 mph 21.9 mph 0.01 in Fog , Rain Light Rain
2:05 AM 50.0 °F 50.0 °F 100% 30.06 in 0.2 mi South 10.4 mph 23.0 mph 0.00 in Fog , Rain Light Rain
2:56 AM 50.0 °F 50.0 °F 100% 30.05 in 0.2 mi South 15.0 mph 21.9 mph 0.03 in Fog , Rain Light Rain
3:37 AM 50.0 °F 50.0 °F 100% 30.01 in 0.2 mi South 17.3 mph 24.2 mph 0.02 in Fog Fog
3:45 AM 50.0 °F 50.0 °F 100% 29.99 in 0.5 mi SSE 17.3 mph 31.1 mph 0.02 in Fog Fog
3:56 AM 50.0 °F 50.0 °F 100% 29.99 in 0.5 mi South 16.1 mph 27.6 mph 0.02 in Fog Fog
4:02 AM 50.0 °F 50.0 °F 100% 30.00 in 1.0 mi South 16.1 mph 27.6 mph N/A   Overcast
4:04 AM 50.0 °F 50.0 °F 100% 30.00 in 1.8 mi South 17.3 mph 25.3 mph N/A   Overcast
4:18 AM 50.0 °F 50.0 °F 100% 30.00 in 1.2 mi South 18.4 mph 27.6 mph 0.05 in Rain Rain
4:33 AM 50.0 °F 50.0 °F 100% 29.99 in 0.8 mi South 11.5 mph 20.7 mph 0.10 in Rain Rain
4:45 AM 50.0 °F 50.0 °F 100% 30.00 in 0.5 mi South 16.1 mph 29.9 mph 0.16 in Fog , Rain Heavy Rain
4:56 AM 50.0 °F 50.0 °F 100% 30.01 in 0.5 mi South 12.7 mph 21.9 mph 0.23 in Fog , Rain Rain
5:56 AM 50.0 °F 50.0 °F 100% 29.99 in 0.5 mi South 11.5 mph 31.1 mph 0.22 in Fog , Rain Rain
6:24 AM 50.0 °F 50.0 °F 100% 30.01 in 1.0 mi Variable 4.6 mph - 0.10 in Rain Rain
6:27 AM 50.0 °F 50.0 °F 100% 30.01 in 1.5 mi Variable 5.8 mph - 0.10 in Rain Light Rain
6:40 AM 50.0 °F 50.0 °F 100% 30.02 in 2.5 mi Variable 5.8 mph - 0.10 in Rain Light Rain
6:56 AM 50.0 °F 50.0 °F 100% 30.03 in 1.0 mi Variable 4.6 mph - 0.10 in   Overcast
7:04 AM 50.0 °F 50.0 °F 100% 30.02 in 1.5 mi Variable 4.6 mph - N/A   Overcast
7:22 AM 50.0 °F 50.0 °F 100% 30.02 in 3.0 mi Calm Calm - N/A   Overcast
7:48 AM 50.0 °F 50.0 °F 100% 30.03 in 1.8 mi Calm Calm - N/A   Overcast
7:56 AM 50.0 °F 50.0 °F 100% 30.04 in 1.2 mi Variable 4.6 mph - N/A   Overcast
8:10 AM 50.0 °F 50.0 °F 100% 30.05 in 2.0 mi Calm Calm - N/A   Overcast
8:19 AM 50.0 °F 50.0 °F 100% 30.05 in 1.5 mi Calm Calm - N/A   Overcast
8:31 AM 50.0 °F 50.0 °F 100% 30.06 in 1.2 mi Variable 3.5 mph - N/A   Overcast
8:42 AM 50.0 °F 50.0 °F 100% 30.06 in 1.8 mi Variable 5.8 mph - 0.00 in Rain Light Rain
8:49 AM 50.0 °F 50.0 °F 100% 30.07 in 3.0 mi Variable 5.8 mph - 0.00 in   Overcast
8:56 AM 50.0 °F 50.0 °F 100% 30.08 in 3.0 mi South 5.8 mph - 0.00 in   Overcast
9:29 AM 50.0 °F 50.0 °F 100% 30.08 in 1.8 mi SSE 8.1 mph - N/A   Overcast
9:31 AM 50.0 °F 50.0 °F 100% 30.08 in 0.8 mi SSE 9.2 mph - N/A   Overcast
9:34 AM 50.0 °F 50.0 °F 100% 30.08 in 0.2 mi South 8.1 mph - N/A Fog Fog
9:44 AM 50.0 °F 50.0 °F 100% 30.08 in 0.8 mi South 9.2 mph - N/A   Overcast
9:46 AM 50.0 °F 50.0 °F 100% 30.08 in 1.5 mi South 10.4 mph - N/A   Overcast
9:56 AM 50.0 °F 50.0 °F 100% 30.09 in 0.5 mi South 9.2 mph - N/A Fog Fog
10:03 AM 48.2 °F 48.2 °F 100% 30.09 in 0.2 mi South 9.2 mph - N/A Fog Fog
10:11 AM 50.0 °F 50.0 °F 100% 30.09 in 0.8 mi SSE 10.4 mph 16.1 mph N/A   Overcast
10:18 AM 50.0 °F 50.0 °F 100% 30.09 in 1.2 mi South 8.1 mph 16.1 mph N/A   Overcast
10:23 AM 50.0 °F 50.0 °F 100% 30.09 in 2.0 mi South 9.2 mph - N/A   Overcast
10:35 AM 50.0 °F 50.0 °F 100% 30.09 in 3.0 mi South 8.1 mph - N/A   Overcast
10:56 AM 50.0 °F 50.0 °F 100% 30.09 in 3.0 mi South 9.2 mph 16.1 mph N/A   Overcast
11:36 AM 50.0 °F 50.0 °F 100% 30.06 in 2.5 mi South 9.2 mph 19.6 mph 0.00 in Rain Light Rain
11:56 AM 50.9 °F 50.0 °F 97% 30.06 in 3.0 mi Variable 6.9 mph - 0.01 in Rain Light Rain
12:03 PM 50.0 °F 50.0 °F 100% 30.05 in 2.0 mi Variable 6.9 mph - 0.00 in Rain Light Rain
12:17 PM 51.8 °F 50.0 °F 94% 30.05 in 3.0 mi South 11.5 mph 19.6 mph 0.00 in   Overcast
12:43 PM 51.8 °F 50.0 °F 94% 30.05 in 3.0 mi SSW 10.4 mph 17.3 mph 0.00 in   Overcast
12:56 PM 52.0 °F 50.9 °F 96% 30.06 in 3.0 mi SSW 8.1 mph 18.4 mph 0.00 in   Overcast
1:18 PM 51.8 °F 50.0 °F 94% 30.05 in 3.0 mi Variable 5.8 mph - 0.00 in   Overcast
1:25 PM 51.8 °F 50.0 °F 94% 30.05 in 3.0 mi Variable 6.9 mph - 0.00 in   Overcast
1:34 PM 51.8 °F 50.0 °F 94% 30.05 in 3.0 mi Variable 6.9 mph - 0.00 in   Overcast
1:56 PM 50.9 °F 48.9 °F 93% 30.06 in 2.0 mi West 12.7 mph 28.8 mph 0.02 in Rain Rain
1:58 PM 51.8 °F 48.2 °F 88% 30.05 in 1.5 mi WSW 10.4 mph 28.8 mph 0.01 in Rain Rain
2:08 PM 50.0 °F 48.2 °F 94% 30.06 in 3.0 mi Variable 6.9 mph - 0.01 in Rain Light Rain
2:16 PM 50.0 °F 48.2 °F 94% 30.07 in 5.0 mi West 8.1 mph - 0.01 in   Mostly Cloudy
2:56 PM 52.0 °F 46.9 °F 83% 30.09 in 4.0 mi WNW 8.1 mph - 0.01 in   Haze
3:56 PM 52.0 °F 46.9 °F 83% 30.11 in 5.0 mi Variable 6.9 mph - N/A   Haze
4:45 PM 50.0 °F 46.4 °F 87% 30.13 in 4.0 mi WNW 6.9 mph - N/A   Mostly Cloudy
4:56 PM 50.0 °F 45.9 °F 86% 30.14 in 4.0 mi Variable 6.9 mph - N/A   Mostly Cloudy
5:56 PM 47.8 °F 45.9 °F 93% 30.16 in 6.0 mi Calm Calm - 0.00 in   Overcast
6:10 PM 48.2 °F 46.4 °F 93% 30.16 in 5.0 mi Calm Calm - N/A   Overcast
6:56 PM 48.9 °F 45.9 °F 89% 30.19 in 5.0 mi Variable 6.9 mph - N/A   Overcast
7:26 PM 48.2 °F 44.6 °F 87% 30.20 in 5.0 mi NW 6.9 mph - N/A   Mostly Cloudy
7:56 PM 47.8 °F 45.0 °F 90% 30.22 in 4.0 mi NNW 6.9 mph - N/A   Scattered Clouds
8:30 PM 48.2 °F 44.6 °F 87% 30.23 in 4.0 mi NNW 4.6 mph - N/A   Mostly Cloudy
8:41 PM 48.2 °F 44.6 °F 87% 30.24 in 4.0 mi NW 3.5 mph - N/A   Mostly Cloudy
8:48 PM 48.2 °F 44.6 °F 87% 30.24 in 4.0 mi NNW 4.6 mph - N/A   Mostly Cloudy
8:56 PM 48.9 °F 45.0 °F 86% 30.25 in 4.0 mi NW 6.9 mph - N/A   Mostly Cloudy
9:56 PM 48.9 °F 45.0 °F 86% 30.28 in 4.0 mi Calm Calm - N/A   Mostly Cloudy
10:08 PM 48.2 °F 46.4 °F 93% 30.27 in 4.0 mi Calm Calm - N/A   Overcast
10:37 PM 48.2 °F 46.4 °F 93% 30.28 in 4.0 mi Calm Calm - N/A   Scattered Clouds
10:56 PM 46.9 °F 45.9 °F 96% 30.30 in 4.0 mi Calm Calm - N/A   Scattered Clouds
11:56 PM 47.8 °F 45.9 °F 93% 30.31 in 3.0 mi Calm Calm - N/A   Mostly Cloudy